Location: Angwan Shehu
(11.2514°N, 7.4613°E)
Time: 01:24:37
(UTC+00:00)

Tiros 1 - Pass Details

Date: 30 April 2021
Orbit: 630 x 664 km, 48.4° (Epoch: 06 May)

Event Time Altitude Azimuth Distance (km) Brightness Sun altitude
Rises 03:46:46 0° 257° (WSW) 2,976 - -20.7°
Reaches altitude 10° 03:50:03 10° 280° (W) 2,059 - -19.9°
Exits shadow 03:52:40 15° 314° (NW) 1,739 9.1 -19.3°
Maximum altitude 03:52:46 15° 315° (NW) 1,738 9.1 -19.3°
Drops below altitude 10° 03:55:29 10° 351° (N) 2,047 9.8 -18.7°
Sets 03:58:45 0° 14° (NNE) 2,948 11.0 -17.9°
